Regional Weather Roundup
Issued by NWS

Home | Current Version | Previous Version | Text Only | Print | Product List | Glossary Off
Versions: 1 2 3 4 5 6 7 8 9 10 11 12 13 14 15 16 17 18 19 20 21 22 23 24 25 26 27 28 29 30 31 32 33 34 35 36 37 38 39 40 41 42 43 44 45 46 47 48 49 50

854
ASUS43 KMPX 250701
RWRMN
WEATHER ROUNDUP FOR MINNESOTA
NATIONAL WEATHER SERVICE TWIN CITIES/CHANHASSEN MN
100 AM CST SAT FEB 25 2017


NOTE: "FAIR" INDICATES FEW OR NO CLOUDS BELOW 12,000 FEET WITH NO
SIGNIFICANT WEATHER AND/OR OBSTRUCTIONS TO VISIBILITY. N/A MEANS
CURRENT SKY AND/OR WEATHER CONDITIONS ARE NOT AVAILABLE.

MNZ060>063-068>070-250800-
   Twin Cities Metro

CITY           SKY/WX    TMP DP  RH WIND       PRES   REMARKS
TWIN CITIES    CLEAR     19   3  49 N17G29    29.90R WCI   4
ST PAUL        PTCLDY    19   7  59 NW18      29.91R WCI   4
CRYSTAL        CLEAR     18   3  52 N17G25    29.90R WCI   3
BLAINE         CLEAR     19   7  58 N21G26    29.89F WCI   3
LAKEVILLE      CLEAR     18   7  62 N15G22    29.89R WCI   3
EDEN PRAIRIE   CLEAR     20   5  52 N17G30    29.89R WCI   5
SOUTH ST PAUL  PTCLDY    20   7  56 N14       29.89R WCI   7
LAKE ELMO      MOCLDY    21  10  63 N10       29.88R WCI  10
$$
MNZ001>005-007-008-013>017-022>024-027-028-250800-
   Northwest Minnesota

CITY           SKY/WX    TMP DP  RH WIND       PRES   REMARKS
BEMIDJI        CLEAR      8   2  76 NW8       29.96F WCI  -5
HALLOCK        PTCLDY     9   7  92 CALM      30.05F
ROSEAU         CLEAR      5   1  85 CALM      30.02F
WARROAD        CLEAR      5   1  85 W5        30.01F WCI  -4
THIEF RVR FALL CLEAR     10   7  87 W7        30.04F WCI  -1
CROOKSTON      CLEAR     14  10  85 N7        30.06F WCI   4
FOSSTON        CLEAR      9   5  85 NW8       30.01F WCI  -4
DETROIT LAKES  CLEAR     14   9  79 NW14      30.01S WCI  -1
MOORHEAD       CLEAR     16  12  86 N7        30.07F WCI   6
PARK RAPIDS    CLEAR     11   1  64 NW12      29.95F WCI  -3
MAHNOMEN       FAIR      12   7  80 N10       30.02S WCI  -1
$$
MNZ006-009>011-018-025>026-250800-
   North Central Minnesota

CITY           SKY/WX    TMP DP  RH WIND       PRES   REMARKS
BAUDETTE       CLEAR      6  -1  73 NW10      29.97F WCI  -9
FLAG ISLAND    CLEAR      5   1  85 W6        29.98F WCI  -6
INTL FALLS     CLEAR      4   0  83 NW8       29.93F WCI  -9
WASKISH        CLEAR      9   3  78 NW6       29.98S WCI  -1
BIG FORK       CLEAR      7   1  78 NW3       29.93R
LONGVILLE      CLEAR     10   3  72 NW6       29.94S WCI   1
GRAND RAPIDS   CLEAR      9   3  77 NW16      29.92S WCI  -8
CRANE LAKE     CLEAR      7   1  78 N5        29.92S WCI  -2
ORR            CLEAR      7   1  78 CALM      29.87S
COOK           CLEAR      9   1  72 NW7       29.88S WCI  -3
WALKER         FAIR       9   1  72 NW12      29.96S WCI  -6
$$
MNZ012-019>021-037-250800-
   Northeast Minnesota

CITY           SKY/WX    TMP DP  RH WIND       PRES   REMARKS
DULUTH         PTCLDY    12   3  67 N14G23    29.81F WCI  -3
ELY            CLOUDY     9   1  72 NW10G18   29.82F WCI  -6
HIBBING        PTCLDY     9   1  70 NW14      29.86S WCI  -7
EVELETH        PTCLDY    12  -3  50 N9G18     29.86S WCI   0
DULUTH HARBOR  PTCLDY    18   7  62 NW13G22   29.88F WCI   4
TWO HARBORS    CLOUDY    16   5  62 NW9       29.79F WCI   4
SILVER BAY     PTCLDY    12   3  67 NW9G21    29.77F WCI   0
GRAND MARAIS     N/A     16   5  62 VRB3      29.78F
G MARAIS ARPRT CLOUDY     9   0  66 NW15G23   29.69F WCI  -8
$$
MNZ029>031-032-039>041-046>048-054>057-064-250800-
   West Central Minnesota

CITY           SKY/WX    TMP DP  RH WIND       PRES   REMARKS
FERGUS FALLS   CLEAR     16   9  73 N15       30.09R WCI   1
WHEATON        CLEAR     16  10  79 NW10      30.09S WCI   3
MORRIS         CLEAR     16   9  73 NW15G23   30.02S WCI   1
ALEXANDRIA     CLEAR     14   5  67 N14       29.98R WCI  -1
ELBOW LAKE     FAIR      15   8  73 NW15      30.03S WCI   0
WADENA         CLEAR     12   5  73 NW12      29.97S WCI  -2
GLENWOOD       CLEAR     14   7  73 NW17      29.98S WCI  -3
APPLETON       CLEAR     18   9  68 NW12      30.05S WCI   5
BENSON         CLEAR     18   7  62 N17G26    30.03R WCI   2
ORTONVILLE       N/A     18  10  73 NW12      30.06R WCI   5
MADISON        CLEAR     19  12  73 NW18      30.06S WCI   4
WILLMAR        FAIR      18  10  73 NW16      29.99S WCI   3
$$
MNZ033>034-036-042>043-049>051-058-059-250800-
   Central Minnesota

CITY           SKY/WX    TMP DP  RH WIND       PRES   REMARKS
ST CLOUD       CLEAR     17   7  64 N15G22    29.93S WCI   2
SAUK CENTRE    FAIR      15   7  70 NW14G22   29.97R WCI   0
PAYNESVILLE    CLEAR     17  10  73 NW13      29.96S WCI   3
AITKIN         CLEAR     14   3  62 NW10      29.91S WCI   1
PINE RIVER     CLEAR     10   5  79 NW9       29.98S WCI  -2
BRAINERD       CLEAR     13   5  70 NW16      29.94S WCI  -3
STAPLES        CLEAR     10   3  72 NW13      29.96S WCI  -5
LONG PRAIRIE   FAIR      14   7  73 W13       29.96R WCI   0
LITTLE FALLS   CLEAR     16   5  62 NW10      29.96R WCI   3
LITCHFIELD     PTCLDY    19  10  68 N18G26    29.95S WCI   4
BUFFALO        PTCLDY    19   8  64 NW14G20   29.94S WCI   5
MAPLE LAKE     CLEAR     19  10  70 NW16      29.94S WCI   4
HUTCHINSON     CLEAR     19  10  67 NW15G23   29.95S WCI   5
$$
MNZ037-044-045-052-053-250800-
   East Central Minnesota

CITY           SKY/WX    TMP DP  RH WIND       PRES   REMARKS
PRINCETON      CLEAR     18   7  62 NW14G24   29.92S WCI   4
MORA           CLEAR     16   3  57 N10G18    29.91F WCI   3
CAMBRIDGE      CLEAR     18   7  62 NW12G21   29.89S WCI   5
RUSH CITY      CLEAR     16   5  62 NW12G17   29.89S WCI   3
MOOSE LAKE     CLEAR     14   3  62 N10G17    29.86F WCI   1
HINCKLEY       FAIR      18   7  62 NW15G23   29.88F WCI   3
CLOQUET        CLOUDY    12   3  67 NW10G16   29.84F WCI  -1
MCGREGOR       CLEAR     14   5  67 NW13      29.90F WCI   0
$$
MNZ071>073-080-081-089-090-097-098-250800-
   Southwest Minnesota

CITY           SKY/WX    TMP DP  RH WIND       PRES   REMARKS
MONTEVIDEO     CLEAR     18   9  68 N22G28    30.04R WCI   0
GRANITE FALLS  CLEAR     20  11  69 NW21      30.03S WCI   4
CANBY          CLEAR     19  16  86 W13G18    30.06S WCI   7
MARSHALL       CLEAR     18  11  74 NW23      30.01R WCI   0
REDWOOD FALLS  CLEAR     19   8  62 NW10G23   29.99R WCI   7
OLIVIA         CLEAR     19  12  73 NW18      29.98R WCI   4
PIPESTONE      CLEAR     19  10  68 N18G25    30.01R WCI   4
WINDOM         CLEAR     18  10  73 NW25G31   29.96R WCI  -1
WORTHINGTON    CLEAR     15  10  80 NW23      29.99R WCI  -3
JACKSON        CLEAR     18  12  79 NW25      29.96R WCI  -1
TRACY          CLEAR     19  12  73 NW21G30   30.00R WCI   2
SLAYTON        CLEAR     17  12  83 NW20G26   29.99R WCI   0
$$
MNZ065>067-074>077-082>085-091>093-250800-
   South Central Minnesota

CITY           SKY/WX    TMP DP  RH WIND       PRES   REMARKS
MANKATO          N/A     19   9  65 NW22G28   29.92R WCI   2
NEW ULM        PTCLDY    18  10  73 NW20G25   29.94S WCI   1
ST JAMES       CLEAR     18  12  79 NW24      29.96S WCI   0
FAIRMONT       CLEAR     17  12  80 NW16      29.95R WCI   2
GLENCOE        CLEAR     20  12  71 NW16G24   29.93S WCI   6
FARIBAULT      CLOUDY    19   9  63 NW17      29.88S WCI   4
OWATONNA       CLEAR     16   7  67 NW13      29.87S WCI   2
WASECA         MOCLDY    18  10  73 NW10      29.90S WCI   6
ALBERT LEA     CLEAR     18   9  68 NW8       29.87R WCI   7
$$
MNZ078>079-086>088-094>096-250800-
   Southeast Minnesota

CITY           SKY/WX    TMP DP  RH WIND       PRES   REMARKS
ROCHESTER      MOCLDY    17  10  74 NW15      29.82R WCI   2
RED WING       CLEAR     19   5  53 NW13G20   29.85R WCI   7
STANTON        MOCLDY    20   9  62 NW15G22   29.87R WCI   6
AUSTIN         CLEAR     16   9  73 NW13      29.84S WCI   2
PRESTON        PTCLDY    17  10  72 NW12      29.80S WCI   5
$$
ABBREVIATIONS USED IN REMARKS
   TC - TEMPERATURES IN CELSIUS
  WCI - WIND CHILL INDEX
   HX - HEAT INDEX
  VSB - VISIBILITY
$$




USA.gov is the U.S. government's official web portal to all federal, state and local government web resources and services.